owner,sensor,date,latitude,longitude,vertical_datum,direction_of_sea_water_velocity,sea_water_speed,upward_sea_water_velocity,qcFlag 
TABS,ioos:station:wmo:42046:1,2006-09-01T00:00:00Z,27.8903,-94.0367,2.0,330.3741511,28.72526588,-99999.0,'11111222,11111222,99999999' 
TABS,ioos:station:wmo:42046:1,2006-09-01T00:30:00Z,27.8903,-94.0367,2.0,334.0741798,30.07698456,-99999.0,'11111222,11111222,99999999' 
TABS,ioos:station:wmo:42046:1,2006-09-01T01:00:00Z,27.8903,-94.0367,2.0,337.378638,25.03615386,-99999.0,'11111222,11111222,99999999' 
TABS,ioos:station:wmo:42046:1,2006-09-01T01:30:00Z,27.8903,-94.0367,2.0,324.0411807,12.95963734,-99999.0,'11111222,11111222,99999999' 
TABS,ioos:station:wmo:42046:1,2006-09-01T02:00:00Z,27.8903,-94.0367,2.0,320.6746345,12.22923137,-99999.0,'11111222,11111222,99999999' 
TABS,ioos:station:wmo:42046:1,2006-09-01T02:30:00Z,27.8903,-94.0367,2.0,342.3358649,26.10063792,-99999.0,'11111222,11111222,99999999' 
TABS,ioos:station:wmo:42046:1,2006-09-01T03:00:00Z,27.8903,-94.0367,2.0,341.0439507,26.41243646,-99999.0,'11111222,11111222,99999999' 
TABS,ioos:station:wmo:42046:1,2006-09-01T03:30:00Z,27.8903,-94.0367,2.0,337.0819086,26.57805298,-99999.0,'11111222,11111222,99999999' 
TABS,ioos:station:wmo:42046:1,2006-09-01T04:00:00Z,27.8903,-94.0367,2.0,335.4949066,26.25498429,-99999.0,'11111222,11111222,99999999' 
TABS,ioos:station:wmo:42046:1,2006-09-01T04:30:00Z,27.8903,-94.0367,2.0,332.0220126,26.11180001,-99999.0,'11111222,11111222,99999999' 
TABS,ioos:station:wmo:42046:1,2006-09-01T05:00:00Z,27.8903,-94.0367,2.0,332.77492,26.77645608,-99999.0,'11111222,11111222,99999999' 
TABS,ioos:station:wmo:42046:1,2006-09-01T05:30:00Z,27.8903,-94.0367,2.0,330.7797361,26.15878055,-99999.0,'11111222,11111222,99999999' 
TABS,ioos:station:wmo:42046:1,2006-09-01T06:00:00Z,27.8903,-94.0367,2.0,329.3161646,25.65134889,-99999.0,'11111222,11111222,99999999' 
TABS,ioos:station:wmo:42046:1,2006-09-01T06:30:00Z,27.8903,-94.0367,2.0,326.704111,24.60985575,-99999.0,'11111222,11111222,99999999' 
TABS,ioos:station:wmo:42046:1,2006-09-01T07:00:00Z,27.8903,-94.0367,2.0,334.4744842,25.6429737,-99999.0,'11111222,11111222,99999999' 
TABS,ioos:station:wmo:42046:1,2006-09-01T07:30:00Z,27.8903,-94.0367,2.0,332.9536011,27.66561042,-99999.0,'11111222,11111222,99999999' 
TABS,ioos:station:wmo:42046:1,2006-09-01T08:00:00Z,27.8903,-94.0367,2.0,330.3635291,26.28920881,-99999.0,'11111222,11111222,99999999' 
TABS,ioos:station:wmo:42046:1,2006-09-01T08:30:00Z,27.8903,-94.0367,2.0,335.2653134,26.88677928,-99999.0,'11111222,11111222,99999999' 
TABS,ioos:station:wmo:42046:1,2006-09-01T09:00:00Z,27.8903,-94.0367,2.0,334.4572164,26.57765979,-99999.0,'11111222,11111222,99999999' 
TABS,ioos:station:wmo:42046:1,2006-09-01T09:30:00Z,27.8903,-94.0367,2.0,338.0547229,25.09866132,-99999.0,'11111222,11111222,99999999' 
TABS,ioos:station:wmo:42046:1,2006-09-01T10:00:00Z,27.8903,-94.0367,2.0,339.2560259,26.3695127,-99999.0,'11111222,11111222,99999999' 
TABS,ioos:station:wmo:42046:1,2006-09-01T10:30:00Z,27.8903,-94.0367,2.0,335.8387619,24.8466859,-99999.0,'11111222,11111222,99999999' 
TABS,ioos:station:wmo:42046:1,2006-09-01T11:00:00Z,27.8903,-94.0367,2.0,337.5787825,21.10551113,-99999.0,'11111222,11111222,99999999' 
TABS,ioos:station:wmo:42046:1,2006-09-01T11:30:00Z,27.8903,-94.0367,2.0,338.9405355,20.37062837,-99999.0,'11111222,11111222,99999999' 
TABS,ioos:station:wmo:42046:1,2006-09-01T12:00:00Z,27.8903,-94.0367,2.0,342.0974923,24.85341224,-99999.0,'11111222,11111222,99999999' 
TABS,ioos:station:wmo:42046:1,2006-09-01T12:30:00Z,27.8903,-94.0367,2.0,340.7537656,25.45256372,-99999.0,'11111222,11111222,99999999' 
TABS,ioos:station:wmo:42046:1,2006-09-01T13:00:00Z,27.8903,-94.0367,2.0,340.3941031,25.06312431,-99999.0,'11111222,11111222,99999999' 
TABS,ioos:station:wmo:42046:1,2006-09-01T13:30:00Z,27.8903,-94.0367,2.0,341.3517816,25.45651194,-99999.0,'11111222,11111222,99999999' 
TABS,ioos:station:wmo:42046:1,2006-09-01T14:00:00Z,27.8903,-94.0367,2.0,343.5164766,24.70538808,-99999.0,'11111222,11111222,99999999' 
TABS,ioos:station:wmo:42046:1,2006-09-01T14:30:00Z,27.8903,-94.0367,2.0,343.6148482,23.43165594,-99999.0,'11111222,11111222,99999999' 
TABS,ioos:station:wmo:42046:1,2006-09-01T15:00:00Z,27.8903,-94.0367,2.0,342.2387937,23.40563394,-99999.0,'11111222,11111222,99999999' 
TABS,ioos:station:wmo:42046:1,2006-09-01T15:30:00Z,27.8903,-94.0367,2.0,344.5488271,22.78346988,-99999.0,'11111222,11111222,99999999' 
TABS,ioos:station:wmo:42046:1,2006-09-01T16:00:00Z,27.8903,-94.0367,2.0,341.145393,23.30028755,-99999.0,'11111222,11111222,99999999' 
TABS,ioos:station:wmo:42046:1,2006-09-01T16:30:00Z,27.8903,-94.0367,2.0,339.6869011,22.38197936,-99999.0,'11111222,11111222,99999999' 
TABS,ioos:station:wmo:42046:1,2006-09-01T17:00:00Z,27.8903,-94.0367,2.0,342.4380204,21.17706779,-99999.0,'11111222,11111222,99999999' 
TABS,ioos:station:wmo:42046:1,2006-09-01T17:30:00Z,27.8903,-94.0367,2.0,340.7507296,22.02116482,-99999.0,'11111222,11111222,99999999' 
TABS,ioos:station:wmo:42046:1,2006-09-01T18:00:00Z,27.8903,-94.0367,2.0,336.9696533,20.60206786,-99999.0,'11111222,11111222,99999999' 
TABS,ioos:station:wmo:42046:1,2006-09-01T18:30:00Z,27.8903,-94.0367,2.0,337.8710288,20.12227621,-99999.0,'11111222,11111222,99999999' 
TABS,ioos:station:wmo:42046:1,2006-09-01T19:00:00Z,27.8903,-94.0367,2.0,334.0876281,21.60181705,-99999.0,'11111222,11111222,99999999' 
TABS,ioos:station:wmo:42046:1,2006-09-01T19:30:00Z,27.8903,-94.0367,2.0,336.2702678,21.51942378,-99999.0,'11111222,11111222,99999999' 
TABS,ioos:station:wmo:42046:1,2006-09-01T20:00:00Z,27.8903,-94.0367,2.0,336.109982,21.75380886,-99999.0,'11111222,11111222,99999999' 
TABS,ioos:station:wmo:42046:1,2006-09-01T20:30:00Z,27.8903,-94.0367,2.0,330.7120493,23.34407848,-99999.0,'11111222,11111222,99999999' 
TABS,ioos:station:wmo:42046:1,2006-09-01T21:00:00Z,27.8903,-94.0367,2.0,333.044887,24.28873401,-99999.0,'11111222,11111222,99999999' 
TABS,ioos:station:wmo:42046:1,2006-09-01T21:30:00Z,27.8903,-94.0367,2.0,331.7404553,24.6477788,-99999.0,'11111222,11111222,99999999' 
TABS,ioos:station:wmo:42046:1,2006-09-01T22:00:00Z,27.8903,-94.0367,2.0,336.1990723,25.96859642,-99999.0,'11111222,11111222,99999999' 
TABS,ioos:station:wmo:42046:1,2006-09-01T22:30:00Z,27.8903,-94.0367,2.0,335.5418771,26.27814301,-99999.0,'11111222,11111222,99999999' 
TABS,ioos:station:wmo:42046:1,2006-09-01T23:00:00Z,27.8903,-94.0367,2.0,337.9499988,25.22509267,-99999.0,'11111222,11111222,99999999' 
TABS,ioos:station:wmo:42046:1,2006-09-01T23:30:00Z,27.8903,-94.0367,2.0,343.0063073,24.39520035,-99999.0,'11111222,11111222,99999999' 
TABS,ioos:station:wmo:42046:1,2006-09-02T00:00:00Z,27.8903,-94.0367,2.0,344.580216,26.81528296,-99999.0,'11111222,11111222,99999999' 
TABS,ioos:station:wmo:42046:1,2006-09-02T00:30:00Z,27.8903,-94.0367,2.0,348.8562981,24.36949322,-99999.0,'11111222,11111222,99999999' 
TABS,ioos:station:wmo:42046:1,2006-09-02T01:00:00Z,27.8903,-94.0367,2.0,347.0968169,14.5986472,-99999.0,'11111222,11111222,99999999' 
TABS,ioos:station:wmo:42046:1,2006-09-02T01:30:00Z,27.8903,-94.0367,2.0,353.4159992,9.593273685,-99999.0,'11133222,11111222,99999999' 
TABS,ioos:station:wmo:42046:1,2006-09-02T02:00:00Z,27.8903,-94.0367,2.0,346.2989731,9.541514555,-99999.0,'11133222,11111222,99999999' 
TABS,ioos:station:wmo:42046:1,2006-09-02T02:30:00Z,27.8903,-94.0367,2.0,346.3227207,9.684637319,-99999.0,'11133222,11111222,99999999' 
TABS,ioos:station:wmo:42046:1,2006-09-02T03:00:00Z,27.8903,-94.0367,2.0,330.1602951,8.219793185,-99999.0,'11133222,11111222,99999999' 
TABS,ioos:station:wmo:42046:1,2006-09-02T03:30:00Z,27.8903,-94.0367,2.0,339.6279244,14.96612842,-99999.0,'11111222,11111222,99999999' 
TABS,ioos:station:wmo:42046:1,2006-09-02T04:00:00Z,27.8903,-94.0367,2.0,354.7251903,7.722706779,-99999.0,'11133222,11111222,99999999' 
TABS,ioos:station:wmo:42046:1,2006-09-02T04:30:00Z,27.8903,-94.0367,2.0,347.636674,14.291438,-99999.0,'11111222,11111222,99999999' 
TABS,ioos:station:wmo:42046:1,2006-09-02T05:00:00Z,27.8903,-94.0367,2.0,337.0853423,12.99555693,-99999.0,'11111222,11111222,99999999' 
TABS,ioos:station:wmo:42046:1,2006-09-02T05:30:00Z,27.8903,-94.0367,2.0,338.2108561,17.72647737,-99999.0,'11111222,11111222,99999999' 
TABS,ioos:station:wmo:42046:1,2006-09-02T06:00:00Z,27.8903,-94.0367,2.0,338.1547402,19.29560831,-99999.0,'11111222,11111222,99999999' 
TABS,ioos:station:wmo:42046:1,2006-09-02T06:30:00Z,27.8903,-94.0367,2.0,330.2180672,17.13292153,-99999.0,'11111222,11111222,99999999' 
TABS,ioos:station:wmo:42046:1,2006-09-02T07:00:00Z,27.8903,-94.0367,2.0,333.1204957,17.09723369,-99999.0,'11111222,11111222,99999999' 
TABS,ioos:station:wmo:42046:1,2006-09-02T07:30:00Z,27.8903,-94.0367,2.0,328.6715909,18.84807682,-99999.0,'11111222,11111222,99999999' 
TABS,ioos:station:wmo:42046:1,2006-09-02T08:00:00Z,27.8903,-94.0367,2.0,330.2671084,18.20705907,-99999.0,'11111222,11111222,99999999' 
TABS,ioos:station:wmo:42046:1,2006-09-02T08:30:00Z,27.8903,-94.0367,2.0,331.8085476,19.22004162,-99999.0,'11111222,11111222,99999999' 
TABS,ioos:station:wmo:42046:1,2006-09-02T09:00:00Z,27.8903,-94.0367,2.0,333.1452151,20.32164609,-99999.0,'11111222,11111222,99999999' 
TABS,ioos:station:wmo:42046:1,2006-09-02T09:30:00Z,27.8903,-94.0367,2.0,333.0117133,21.17614224,-99999.0,'11111222,11111222,99999999' 
TABS,ioos:station:wmo:42046:1,2006-09-02T10:00:00Z,27.8903,-94.0367,2.0,328.0304343,20.51096292,-99999.0,'11111222,11111222,99999999' 
TABS,ioos:station:wmo:42046:1,2006-09-02T10:30:00Z,27.8903,-94.0367,2.0,329.9966987,20.87773934,-99999.0,'11111222,11111222,99999999' 
TABS,ioos:station:wmo:42046:1,2006-09-02T11:00:00Z,27.8903,-94.0367,2.0,332.6521286,20.28750354,-99999.0,'11111222,11111222,99999999' 
TABS,ioos:station:wmo:42046:1,2006-09-02T11:30:00Z,27.8903,-94.0367,2.0,335.427184,17.62639498,-99999.0,'11111222,11111222,99999999' 
TABS,ioos:station:wmo:42046:1,2006-09-02T12:00:00Z,27.8903,-94.0367,2.0,334.3124177,22.4930078,-99999.0,'11111222,11111222,99999999' 
TABS,ioos:station:wmo:42046:1,2006-09-02T12:30:00Z,27.8903,-94.0367,2.0,335.4964474,21.38617544,-99999.0,'11111222,11111222,99999999' 
TABS,ioos:station:wmo:42046:1,2006-09-02T13:00:00Z,27.8903,-94.0367,2.0,332.8257163,21.02022835,-99999.0,'11111222,11111222,99999999' 
TABS,ioos:station:wmo:42046:1,2006-09-02T13:30:00Z,27.8903,-94.0367,2.0,334.1506345,21.4902885,-99999.0,'11111222,11111222,99999999' 
TABS,ioos:station:wmo:42046:1,2006-09-02T14:00:00Z,27.8903,-94.0367,2.0,330.5939462,21.2016273,-99999.0,'11111222,11111222,99999999' 
TABS,ioos:station:wmo:42046:1,2006-09-02T14:30:00Z,27.8903,-94.0367,2.0,333.7257648,22.04791373,-99999.0,'11111222,11111222,99999999' 
TABS,ioos:station:wmo:42046:1,2006-09-02T15:00:00Z,27.8903,-94.0367,2.0,332.4703333,21.24565838,-99999.0,'11111222,11111222,99999999' 
TABS,ioos:station:wmo:42046:1,2006-09-02T15:30:00Z,27.8903,-94.0367,2.0,334.2647717,19.46030318,-99999.0,'11111222,11111222,99999999' 
TABS,ioos:station:wmo:42046:1,2006-09-02T16:00:00Z,27.8903,-94.0367,2.0,335.574185,18.57230465,-99999.0,'11111222,11111222,99999999' 
TABS,ioos:station:wmo:42046:1,2006-09-02T16:30:00Z,27.8903,-94.0367,2.0,335.4145507,20.06950423,-99999.0,'11111222,11111222,99999999' 
TABS,ioos:station:wmo:42046:1,2006-09-02T17:00:00Z,27.8903,-94.0367,2.0,336.2128859,18.27225492,-99999.0,'11111222,11111222,99999999' 
TABS,ioos:station:wmo:42046:1,2006-09-02T17:30:00Z,27.8903,-94.0367,2.0,323.9221865,15.77550633,-99999.0,'11111222,11111222,99999999' 
TABS,ioos:station:wmo:42046:1,2006-09-02T18:00:00Z,27.8903,-94.0367,2.0,327.1196103,17.27786156,-99999.0,'11111222,11111222,99999999' 
TABS,ioos:station:wmo:42046:1,2006-09-02T18:30:00Z,27.8903,-94.0367,2.0,327.3253904,17.6893923,-99999.0,'11111222,11111222,99999999' 
TABS,ioos:station:wmo:42046:1,2006-09-02T19:00:00Z,27.8903,-94.0367,2.0,324.2474609,17.6453535,-99999.0,'11111222,11111222,99999999' 
TABS,ioos:station:wmo:42046:1,2006-09-02T19:30:00Z,27.8903,-94.0367,2.0,321.5716805,20.51359062,-99999.0,'11111222,11111222,99999999' 
TABS,ioos:station:wmo:42046:1,2006-09-02T20:00:00Z,27.8903,-94.0367,2.0,325.2257889,19.63713065,-99999.0,'11111222,11111222,99999999' 
TABS,ioos:station:wmo:42046:1,2006-09-02T20:30:00Z,27.8903,-94.0367,2.0,322.5296258,19.26505904,-99999.0,'11111222,11111222,99999999' 
TABS,ioos:station:wmo:42046:1,2006-09-02T21:00:00Z,27.8903,-94.0367,2.0,325.6859695,19.60149484,-99999.0,'11111222,11111222,99999999' 
TABS,ioos:station:wmo:42046:1,2006-09-02T21:30:00Z,27.8903,-94.0367,2.0,321.0491027,18.11795242,-99999.0,'11111222,11111222,99999999' 
TABS,ioos:station:wmo:42046:1,2006-09-02T22:00:00Z,27.8903,-94.0367,2.0,325.6808975,19.19101092,-99999.0,'11111222,11111222,99999999' 
TABS,ioos:station:wmo:42046:1,2006-09-02T22:30:00Z,27.8903,-94.0367,2.0,322.3964724,19.82962682,-99999.0,'11111222,11111222,99999999' 
TABS,ioos:station:wmo:42046:1,2006-09-02T23:00:00Z,27.8903,-94.0367,2.0,326.9538777,20.24506113,-99999.0,'11111222,11111222,99999999' 
TABS,ioos:station:wmo:42046:1,2006-09-02T23:30:00Z,27.8903,-94.0367,2.0,329.5569127,20.95970658,-99999.0,'11111222,11111222,99999999' 
TABS,ioos:station:wmo:42046:1,2006-09-03T00:00:00Z,27.8903,-94.0367,2.0,328.1477958,21.45019347,-99999.0,'11111222,11111222,99999999' 
TABS,ioos:station:wmo:42046:1,2006-09-03T00:30:00Z,27.8903,-94.0367,2.0,328.7247233,19.22356106,-99999.0,'11111222,11111222,99999999' 
TABS,ioos:station:wmo:42046:1,2006-09-03T01:00:00Z,27.8903,-94.0367,2.0,340.9206552,13.49113042,-99999.0,'11111222,11111222,99999999' 
TABS,ioos:station:wmo:42046:1,2006-09-03T01:30:00Z,27.8903,-94.0367,2.0,341.7464284,18.00609897,-99999.0,'11111222,11111222,99999999' 
TABS,ioos:station:wmo:42046:1,2006-09-03T02:00:00Z,27.8903,-94.0367,2.0,345.761959,16.50707727,-99999.0,'11111222,11111222,99999999' 
TABS,ioos:station:wmo:42046:1,2006-09-03T02:30:00Z,27.8903,-94.0367,2.0,337.0747609,18.45795492,-99999.0,'11111222,11111222,99999999' 
TABS,ioos:station:wmo:42046:1,2006-09-03T03:00:00Z,27.8903,-94.0367,2.0,336.6881343,17.8905366,-99999.0,'11111222,11111222,99999999' 
TABS,ioos:station:wmo:42046:1,2006-09-03T03:30:00Z,27.8903,-94.0367,2.0,338.6309842,17.23487453,-99999.0,'11111222,11111222,99999999' 
TABS,ioos:station:wmo:42046:1,2006-09-03T04:00:00Z,27.8903,-94.0367,2.0,337.5715524,14.75623597,-99999.0,'11111222,11111222,99999999' 
TABS,ioos:station:wmo:42046:1,2006-09-03T04:30:00Z,27.8903,-94.0367,2.0,337.6865786,14.53866913,-99999.0,'11111222,11111222,99999999' 
TABS,ioos:station:wmo:42046:1,2006-09-03T05:00:00Z,27.8903,-94.0367,2.0,332.1317723,15.5312749,-99999.0,'11111222,11111222,99999999' 
TABS,ioos:station:wmo:42046:1,2006-09-03T05:30:00Z,27.8903,-94.0367,2.0,329.9892006,13.61543977,-99999.0,'11111222,11111222,99999999' 
TABS,ioos:station:wmo:42046:1,2006-09-03T06:00:00Z,27.8903,-94.0367,2.0,331.5823966,14.24672945,-99999.0,'11111222,11111222,99999999' 
TABS,ioos:station:wmo:42046:1,2006-09-03T06:30:00Z,27.8903,-94.0367,2.0,323.9026072,16.17546908,-99999.0,'11111222,11111222,99999999' 
TABS,ioos:station:wmo:42046:1,2006-09-03T07:00:00Z,27.8903,-94.0367,2.0,323.8902642,14.77929971,-99999.0,'11111222,11111222,99999999' 
TABS,ioos:station:wmo:42046:1,2006-09-03T07:30:00Z,27.8903,-94.0367,2.0,311.574537,14.43663396,-99999.0,'11111222,11111222,99999999' 
TABS,ioos:station:wmo:42046:1,2006-09-03T08:00:00Z,27.8903,-94.0367,2.0,329.4303046,16.96847076,-99999.0,'11111222,11111222,99999999' 
TABS,ioos:station:wmo:42046:1,2006-09-03T08:30:00Z,27.8903,-94.0367,2.0,324.5496394,17.60340024,-99999.0,'11111222,11111222,99999999' 
TABS,ioos:station:wmo:42046:1,2006-09-03T09:00:00Z,27.8903,-94.0367,2.0,328.5739553,16.78168347,-99999.0,'11111222,11111222,99999999' 
TABS,ioos:station:wmo:42046:1,2006-09-03T09:30:00Z,27.8903,-94.0367,2.0,332.2641624,19.0373869,-99999.0,'11111222,11111222,99999999' 
TABS,ioos:station:wmo:42046:1,2006-09-03T10:00:00Z,27.8903,-94.0367,2.0,333.9108026,19.39632182,-99999.0,'11111222,11111222,99999999' 
TABS,ioos:station:wmo:42046:1,2006-09-03T10:30:00Z,27.8903,-94.0367,2.0,335.2052439,20.12527018,-99999.0,'11111222,11111222,99999999' 
TABS,ioos:station:wmo:42046:1,2006-09-03T11:00:00Z,27.8903,-94.0367,2.0,338.2726606,15.85653808,-99999.0,'11111222,11111222,99999999' 
TABS,ioos:station:wmo:42046:1,2006-09-03T11:30:00Z,27.8903,-94.0367,2.0,330.4739906,14.63000342,-99999.0,'11111222,11111222,99999999' 
TABS,ioos:station:wmo:42046:1,2006-09-03T12:00:00Z,27.8903,-94.0367,2.0,332.6220659,17.96190691,-99999.0,'11111222,11111222,99999999' 
TABS,ioos:station:wmo:42046:1,2006-09-03T12:30:00Z,27.8903,-94.0367,2.0,343.3259503,17.60005966,-99999.0,'11111222,11111222,99999999' 
TABS,ioos:station:wmo:42046:1,2006-09-03T13:00:00Z,27.8903,-94.0367,2.0,342.9429316,17.62530567,-99999.0,'11111222,11111222,99999999' 
TABS,ioos:station:wmo:42046:1,2006-09-03T13:30:00Z,27.8903,-94.0367,2.0,342.9041913,18.94721615,-99999.0,'11111222,11111222,99999999' 
TABS,ioos:station:wmo:42046:1,2006-09-03T14:00:00Z,27.8903,-94.0367,2.0,345.2669221,19.93547842,-99999.0,'11111222,11111222,99999999' 
TABS,ioos:station:wmo:42046:1,2006-09-03T14:30:00Z,27.8903,-94.0367,2.0,347.7869625,18.90794542,-99999.0,'11111222,11111222,99999999' 
TABS,ioos:station:wmo:42046:1,2006-09-03T15:00:00Z,27.8903,-94.0367,2.0,346.0904801,18.67771399,-99999.0,'11111222,11111222,99999999' 
TABS,ioos:station:wmo:42046:1,2006-09-03T15:30:00Z,27.8903,-94.0367,2.0,348.6903044,18.40746044,-99999.0,'11111222,11111222,99999999' 
TABS,ioos:station:wmo:42046:1,2006-09-03T16:00:00Z,27.8903,-94.0367,2.0,349.4377702,19.69369696,-99999.0,'11111222,11111222,99999999' 
TABS,ioos:station:wmo:42046:1,2006-09-03T16:30:00Z,27.8903,-94.0367,2.0,352.3352678,17.76876473,-99999.0,'11111222,11111222,99999999' 
TABS,ioos:station:wmo:42046:1,2006-09-03T17:00:00Z,27.8903,-94.0367,2.0,355.7085813,17.23833519,-99999.0,'11111222,11111222,99999999' 
TABS,ioos:station:wmo:42046:1,2006-09-03T17:30:00Z,27.8903,-94.0367,2.0,352.5491769,16.3480427,-99999.0,'11111222,11111222,99999999' 
TABS,ioos:station:wmo:42046:1,2006-09-03T18:00:00Z,27.8903,-94.0367,2.0,353.6442038,15.98827696,-99999.0,'11111222,11111222,99999999' 
TABS,ioos:station:wmo:42046:1,2006-09-03T18:30:00Z,27.8903,-94.0367,2.0,354.5383474,15.12868798,-99999.0,'11111222,11111222,99999999' 
TABS,ioos:station:wmo:42046:1,2006-09-03T19:00:00Z,27.8903,-94.0367,2.0,351.4193123,15.81705409,-99999.0,'11111222,11111222,99999999' 
TABS,ioos:station:wmo:42046:1,2006-09-03T19:30:00Z,27.8903,-94.0367,2.0,345.6500788,15.49340828,-99999.0,'11111222,11111222,99999999' 
TABS,ioos:station:wmo:42046:1,2006-09-03T20:00:00Z,27.8903,-94.0367,2.0,349.3195723,14.99986667,-99999.0,'11111222,11111222,99999999' 
TABS,ioos:station:wmo:42046:1,2006-09-03T20:30:00Z,27.8903,-94.0367,2.0,351.3437287,15.54710584,-99999.0,'11111222,11111222,99999999' 
TABS,ioos:station:wmo:42046:1,2006-09-03T21:00:00Z,27.8903,-94.0367,2.0,349.0041452,14.67951293,-99999.0,'11111222,11111222,99999999' 
TABS,ioos:station:wmo:42046:1,2006-09-03T21:30:00Z,27.8903,-94.0367,2.0,356.2202956,15.62398797,-99999.0,'11111222,11111222,99999999' 
TABS,ioos:station:wmo:42046:1,2006-09-03T22:00:00Z,27.8903,-94.0367,2.0,352.945204,17.26068654,-99999.0,'11111222,11111222,99999999' 
TABS,ioos:station:wmo:42046:1,2006-09-03T22:30:00Z,27.8903,-94.0367,2.0,348.9828489,18.05272556,-99999.0,'11111222,11111222,99999999' 
TABS,ioos:station:wmo:42046:1,2006-09-03T23:00:00Z,27.8903,-94.0367,2.0,350.9389782,19.4932655,-99999.0,'11111222,11111222,99999999' 
TABS,ioos:station:wmo:42046:1,2006-09-03T23:30:00Z,27.8903,-94.0367,2.0,350.4821013,18.56558644,-99999.0,'11111222,11111222,99999999' 
TABS,ioos:station:wmo:42046:1,2006-09-04T00:00:00Z,27.8903,-94.0367,2.0,348.8615336,20.34321754,-99999.0,'11111222,11111222,99999999' 
TABS,ioos:station:wmo:42046:1,2006-09-04T00:30:00Z,27.8903,-94.0367,2.0,353.9328679,19.01652439,-99999.0,'11111222,11111222,99999999' 
TABS,ioos:station:wmo:42046:1,2006-09-04T01:00:00Z,27.8903,-94.0367,2.0,356.0159038,14.10408806,-99999.0,'11111222,11111222,99999999' 
TABS,ioos:station:wmo:42046:1,2006-09-04T01:30:00Z,27.8903,-94.0367,2.0,348.8402927,16.48165647,-99999.0,'11111222,11111222,99999999' 
TABS,ioos:station:wmo:42046:1,2006-09-04T02:00:00Z,27.8903,-94.0367,2.0,354.264062,15.60815492,-99999.0,'11111222,11111222,99999999' 
TABS,ioos:station:wmo:42046:1,2006-09-04T02:30:00Z,27.8903,-94.0367,2.0,352.5054658,13.64658565,-99999.0,'11111222,11111222,99999999' 
TABS,ioos:station:wmo:42046:1,2006-09-04T03:00:00Z,27.8903,-94.0367,2.0,356.5425929,11.44082602,-99999.0,'11111222,11111222,99999999' 
TABS,ioos:station:wmo:42046:1,2006-09-04T03:30:00Z,27.8903,-94.0367,2.0,1.42681862,10.44323705,-99999.0,'11111222,11111222,99999999' 
TABS,ioos:station:wmo:42046:1,2006-09-04T04:00:00Z,27.8903,-94.0367,2.0,353.1888342,10.87676882,-99999.0,'11111222,11111222,99999999' 
TABS,ioos:station:wmo:42046:1,2006-09-04T04:30:00Z,27.8903,-94.0367,2.0,349.9593747,10.09461242,-99999.0,'11111222,11111222,99999999' 
TABS,ioos:station:wmo:42046:1,2006-09-04T05:00:00Z,27.8903,-94.0367,2.0,338.5082207,6.878255593,-99999.0,'11133222,11111222,99999999' 
TABS,ioos:station:wmo:42046:1,2006-09-04T05:30:00Z,27.8903,-94.0367,2.0,341.9783455,6.141302793,-99999.0,'11133222,11111222,99999999' 
TABS,ioos:station:wmo:42046:1,2006-09-04T06:00:00Z,27.8903,-94.0367,2.0,348.3808104,5.809044672,-99999.0,'11133222,11111222,99999999' 
TABS,ioos:station:wmo:42046:1,2006-09-04T06:30:00Z,27.8903,-94.0367,2.0,348.0104038,4.958164983,-99999.0,'11133222,11111222,99999999' 
TABS,ioos:station:wmo:42046:1,2006-09-04T07:00:00Z,27.8903,-94.0367,2.0,341.9532024,7.940661182,-99999.0,'11133222,11111222,99999999' 
TABS,ioos:station:wmo:42046:1,2006-09-04T07:30:00Z,27.8903,-94.0367,2.0,331.7895103,5.605898679,-99999.0,'11133222,11111222,99999999' 
TABS,ioos:station:wmo:42046:1,2006-09-04T08:00:00Z,27.8903,-94.0367,2.0,330.173781,11.31942136,-99999.0,'11111222,11111222,99999999' 
TABS,ioos:station:wmo:42046:1,2006-09-04T08:30:00Z,27.8903,-94.0367,2.0,332.2545423,10.41781647,-99999.0,'11111222,11111222,99999999' 
TABS,ioos:station:wmo:42046:1,2006-09-04T09:00:00Z,27.8903,-94.0367,2.0,327.5217315,11.93704318,-99999.0,'11111222,11111222,99999999' 
TABS,ioos:station:wmo:42046:1,2006-09-04T09:30:00Z,27.8903,-94.0367,2.0,335.749954,12.73361693,-99999.0,'11111222,11111222,99999999' 
TABS,ioos:station:wmo:42046:1,2006-09-04T10:00:00Z,27.8903,-94.0367,2.0,330.5900378,11.89265319,-99999.0,'11111222,11111222,99999999' 
TABS,ioos:station:wmo:42046:1,2006-09-04T10:30:00Z,27.8903,-94.0367,2.0,332.5519236,12.47426952,-99999.0,'11111222,11111222,99999999' 
TABS,ioos:station:wmo:42046:1,2006-09-04T11:00:00Z,27.8903,-94.0367,2.0,333.5234363,11.61862298,-99999.0,'11111222,11111222,99999999' 
TABS,ioos:station:wmo:42046:1,2006-09-04T11:30:00Z,27.8903,-94.0367,2.0,344.0009582,11.68252113,-99999.0,'11111222,11111222,99999999' 
TABS,ioos:station:wmo:42046:1,2006-09-04T12:00:00Z,27.8903,-94.0367,2.0,344.4740936,15.01803249,-99999.0,'11111222,11111222,99999999' 
TABS,ioos:station:wmo:42046:1,2006-09-04T12:30:00Z,27.8903,-94.0367,2.0,341.6734096,16.76010143,-99999.0,'11111222,11111222,99999999' 
TABS,ioos:station:wmo:42046:1,2006-09-04T13:00:00Z,27.8903,-94.0367,2.0,348.1933435,18.76705891,-99999.0,'11111222,11111222,99999999' 
TABS,ioos:station:wmo:42046:1,2006-09-04T13:30:00Z,27.8903,-94.0367,2.0,344.7214809,17.00089409,-99999.0,'11111222,11111222,99999999' 
TABS,ioos:station:wmo:42046:1,2006-09-04T14:00:00Z,27.8903,-94.0367,2.0,352.1715404,18.28037746,-99999.0,'11111222,11111222,99999999' 
TABS,ioos:station:wmo:42046:1,2006-09-04T14:30:00Z,27.8903,-94.0367,2.0,347.6749806,17.70814502,-99999.0,'11111222,11111222,99999999' 
TABS,ioos:station:wmo:42046:1,2006-09-04T15:00:00Z,27.8903,-94.0367,2.0,350.5531675,18.52119057,-99999.0,'11111222,11111222,99999999' 
TABS,ioos:station:wmo:42046:1,2006-09-04T15:30:00Z,27.8903,-94.0367,2.0,346.4225356,18.48665735,-99999.0,'11111222,11111222,99999999' 
TABS,ioos:station:wmo:42046:1,2006-09-04T16:00:00Z,27.8903,-94.0367,2.0,345.0129475,16.51167466,-99999.0,'11111222,11111222,99999999' 